Torna al catalogo

TITAN 34B R/B

AttivoHEO
NORAD 15227·ROCKET BODY·🇺🇸 United States

Lanciato Aug 28, 1984 da Vandenberg Space Force Base

Loading…

Prossimi Passaggi (prossime 24 ore)

TLE

AggiornatoSource: Space-Track

Epoca: Sep 13, 2026, 23:25 UTC

1 15227U 84091B   26256.97602948 -.00000618  00000-0  51308-2 0  9990
2 15227  63.1390 235.7326 7163729 271.3385  15.1203  2.07970119 56383

Traccia TITAN 34B R/B in tempo reale con AllMySat

Download on the App Store